O'Neill, NE

7:01 PM CDT on April 23, 2017 (GMT -0500)
The O'Neill Municipal-Baker

Weather History for KONL - May, 2014

Change the Weather History Date:

Sunday, May 4, 2014

  Actual Average Record
Temperature  
Mean Temperature 52 °F -  
Max Temperature 64 °F 69 °F 96 °F (1949)
Min Temperature 40 °F 43 °F 29 °F (1954)
Degree Days  
Heating Degree Days 13    
Growing Degree Days 2 (Base 50)    
Moisture  
Dew Point 36 °F    
Average Humidity 55    
Maximum Humidity 75    
Minimum Humidity 36    
Precipitation  
Precipitation 0.00 in - - ()
Sea Level Pressure  
Sea Level Pressure 29.92 in    
Wind  
Wind Speed 12 mph (East)    
Max Wind Speed 21 mph    
Max Gust Speed 29 mph    
Visibility 10 miles    
Events      
Averages and records for this station are not official NWS values.
T = Trace of Precipitation, MM = Missing Value Source: NWS Daily Summary

Daily Weather History Graph

Daily Weather History Graph

Search for Another Location

Airport or City:

Trip Planner

Search our weather history database for the weather conditions in past years. The results will help you decide how hot, cold, wet, or windy it might be!

Date:

Astronomy

May. 04, 2014 Rise Set
Actual Time 6:25 AM CDT 8:38 PM CDT
Civil Twilight 5:54 AM CDT 9:09 PM CDT
Nautical Twilight 5:16 AM CDT 9:47 PM CDT
Astronomical Twilight 4:34 AM CDT 10:29 PM CDT
Moon 10:50 AM CDT (5/4) 12:44 AM CDT (5/4)
Length of Visible Light 15h 14m
Length of Day
14h 12m
Waxing Crescent, 28% of the Moon is Illuminated
May 4
Waxing Crescent
May 6
First Quarter
May 14
Full
May 21
Last Quarter
May 28
New

Hourly Weather History & Observations

Time (CDT) Temp. Windchill Dew Point Humidity Pressure Visibility Wind Dir Wind Speed Gust Speed Precip Events Conditions
12:15 AM 49.1 °F - 38.5 °F 67% 29.95 in 10.0 mi ENE 9.2 mph - N/A   Clear
12:35 AM 48.2 °F - 38.5 °F 69% 29.95 in 10.0 mi NE 9.2 mph - N/A   Clear
12:55 AM 47.7 °F - 38.5 °F 70% 29.96 in 10.0 mi NE 6.9 mph - N/A   Clear
1:15 AM 48.6 °F - 38.3 °F 68% 29.97 in 10.0 mi NE 8.1 mph - N/A   Clear
1:35 AM 49.5 °F - 37.0 °F 62% 29.96 in 10.0 mi ENE 10.4 mph - N/A   Clear
1:55 AM 49.8 °F - 36.7 °F 61% 29.96 in 10.0 mi ENE 9.2 mph - N/A   Clear
2:15 AM 49.1 °F - 37.0 °F 63% 29.95 in 10.0 mi NE 11.5 mph - N/A   Clear
2:35 AM 48.4 °F - 36.9 °F 64% 29.95 in 10.0 mi NE 10.4 mph - N/A   Clear
2:55 AM 48.4 °F - 36.3 °F 63% 29.96 in 10.0 mi ENE 12.7 mph - N/A   Clear
3:15 AM 48.4 °F - 35.8 °F 62% 29.93 in 10.0 mi East 13.8 mph - N/A   Clear
3:35 AM 48.2 °F - 35.8 °F 62% 29.92 in 10.0 mi East 17.3 mph - N/A   Clear
3:55 AM 47.8 °F - 35.4 °F 62% 29.97 in 10.0 mi ENE 10.4 mph - N/A   Clear
4:15 AM 46.4 °F 42.4 °F 36.0 °F 67% 29.98 in 10.0 mi NE 8.1 mph - N/A   Clear
4:35 AM 44.8 °F 40.4 °F 36.1 °F 72% 29.97 in 10.0 mi NE 8.1 mph - N/A   Clear
4:55 AM 44.6 °F 39.2 °F 35.6 °F 71% 29.97 in 10.0 mi NE 10.4 mph - N/A   Clear
5:15 AM 43.9 °F 37.9 °F 35.6 °F 73% 29.97 in 10.0 mi ENE 11.5 mph - N/A   Clear
5:35 AM 43.7 °F 36.9 °F 34.9 °F 71% 29.98 in 10.0 mi NE 13.8 mph - N/A   Clear
5:55 AM 43.5 °F 37.1 °F 34.2 °F 70% 29.97 in 10.0 mi ENE 12.7 mph 18.4 mph N/A   Clear
6:15 AM 43.2 °F 35.6 °F 34.0 °F 70% 29.97 in 10.0 mi ENE 16.1 mph - N/A   Clear
6:35 AM 41.9 °F 34.0 °F 34.3 °F 75% 29.99 in 10.0 mi NE 16.1 mph 20.7 mph N/A   Clear
6:55 AM 41.0 °F 33.1 °F 33.3 °F 74% 29.99 in 10.0 mi ENE 15.0 mph 26.5 mph N/A   Clear
7:15 AM 40.5 °F 32.5 °F 32.9 °F 74% 30.00 in 10.0 mi ENE 15.0 mph 21.9 mph N/A   Clear
7:35 AM 40.3 °F 31.6 °F 32.4 °F 73% 30.00 in 10.0 mi ENE 17.3 mph 21.9 mph N/A   Clear
7:55 AM 40.1 °F 30.7 °F 32.0 °F 73% 29.98 in 10.0 mi ENE 19.6 mph 24.2 mph N/A   Clear
8:15 AM 40.5 °F 32.1 °F 32.0 °F 72% 29.98 in 10.0 mi ENE 16.1 mph 20.7 mph N/A   Clear
8:35 AM 41.2 °F 32.1 °F 30.6 °F 66% 30.00 in 10.0 mi East 19.6 mph 24.2 mph N/A   Clear
8:55 AM 42.3 °F 34.1 °F 30.4 °F 63% 30.00 in 10.0 mi East 17.3 mph - N/A   Clear
9:15 AM 43.7 °F 35.2 °F 30.6 °F 60% 29.99 in 10.0 mi East 20.7 mph 26.5 mph N/A   Clear
9:35 AM 44.4 °F 37.5 °F 30.9 °F 59% 30.00 in 10.0 mi East 15.0 mph 25.3 mph N/A   Clear
9:55 AM 46.2 °F 39.3 °F 31.6 °F 57% 29.99 in 10.0 mi East 17.3 mph 20.7 mph N/A   Clear
10:15 AM 48.2 °F - 31.8 °F 53% 29.98 in 10.0 mi East 17.3 mph 25.3 mph N/A   Clear
10:35 AM 49.1 °F - 32.4 °F 53% 29.99 in 10.0 mi ENE 17.3 mph - N/A   Clear
10:55 AM 51.1 °F - 34.0 °F 52% 29.99 in 10.0 mi ENE 16.1 mph 20.7 mph N/A   Clear
11:15 AM 50.5 °F - 33.8 °F 53% 29.98 in 10.0 mi ENE 15.0 mph 25.3 mph N/A   Clear
11:35 AM 51.3 °F - 33.6 °F 51% 29.98 in 10.0 mi East 16.1 mph 24.2 mph N/A   Clear
11:55 AM 52.3 °F - 34.2 °F 50% 29.97 in 10.0 mi East 17.3 mph 23.0 mph N/A   Clear
12:15 PM 54.9 °F - 34.9 °F 47% 29.96 in 10.0 mi East 16.1 mph 25.3 mph N/A   Clear
12:35 PM 55.2 °F - 34.7 °F 46% 29.95 in 10.0 mi East 16.1 mph 23.0 mph N/A   Clear
12:55 PM 56.7 °F - 35.4 °F 45% 29.94 in 10.0 mi East 16.1 mph 21.9 mph N/A   Clear
1:15 PM 57.2 °F - 35.4 °F 44% 29.93 in 10.0 mi East 18.4 mph 28.8 mph N/A   Clear
1:35 PM 57.9 °F - 36.1 °F 44% 29.93 in 10.0 mi East 12.7 mph 20.7 mph N/A   Clear
1:55 PM 59.0 °F - 36.0 °F 42% 29.92 in 10.0 mi ESE 16.1 mph 21.9 mph N/A   Clear
2:15 PM 59.5 °F - 36.1 °F 42% 29.91 in 10.0 mi East 18.4 mph 23.0 mph N/A   Clear
2:35 PM 59.2 °F - 36.1 °F 42% 29.90 in 10.0 mi East 13.8 mph 23.0 mph N/A   Clear
2:55 PM 61.7 °F - 36.3 °F 39% 29.89 in 10.0 mi East 18.4 mph 25.3 mph N/A   Clear
3:15 PM 60.8 °F - 35.8 °F 39% 29.89 in 10.0 mi ESE 15.0 mph 18.4 mph N/A   Clear
3:35 PM 62.2 °F - 35.8 °F 37% 29.88 in 10.0 mi ESE 17.3 mph 23.0 mph N/A   Clear
3:55 PM 61.9 °F - 36.1 °F 38% 29.86 in 10.0 mi ESE 17.3 mph 23.0 mph N/A   Clear
4:15 PM 61.7 °F - 35.6 °F 38% 29.86 in 10.0 mi ESE 15.0 mph 24.2 mph N/A   Clear
4:35 PM 62.4 °F - 36.0 °F 37% 29.86 in 10.0 mi ESE 15.0 mph 18.4 mph N/A   Clear
4:55 PM 63.1 °F - 35.8 °F 36% 29.84 in 10.0 mi SE 15.0 mph 20.7 mph N/A   Clear
5:15 PM 64.0 °F - 36.9 °F 37% 29.85 in 10.0 mi ESE 13.8 mph - N/A   Clear
5:35 PM 64.0 °F - 36.1 °F 36% 29.87 in 10.0 mi SSE 11.5 mph 18.4 mph N/A   Clear
5:55 PM 63.1 °F - 36.0 °F 36% 29.85 in 10.0 mi SE 11.5 mph - N/A   Clear
6:15 PM 62.8 °F - 36.0 °F 37% 29.85 in 10.0 mi SE 10.4 mph 19.6 mph N/A   Clear
6:35 PM 62.6 °F - 35.8 °F 37% 29.85 in 10.0 mi ESE 10.4 mph - N/A   Clear
6:55 PM 62.2 °F - 35.8 °F 37% 29.84 in 10.0 mi ESE 11.5 mph - N/A   Clear
7:15 PM 62.1 °F - 36.3 °F 38% 29.83 in 10.0 mi SE 11.5 mph 18.4 mph N/A   Clear
7:35 PM 61.0 °F - 36.5 °F 40% 29.83 in 10.0 mi ESE 12.7 mph 17.3 mph N/A   Clear
7:55 PM 60.1 °F - 37.2 °F 43% 29.84 in 10.0 mi ESE 8.1 mph - N/A   Clear
8:15 PM 59.0 °F - 37.4 °F 45% 29.84 in 10.0 mi ESE 6.9 mph - N/A   Clear
8:35 PM 57.0 °F - 37.8 °F 49% 29.83 in 10.0 mi ESE 8.1 mph - N/A   Clear
8:55 PM 57.2 °F - 37.4 °F 48% 29.82 in 10.0 mi ESE 8.1 mph - N/A   Clear
9:15 PM 56.8 °F - 37.4 °F 48% 29.82 in 10.0 mi East 6.9 mph - N/A   Clear
9:35 PM 54.1 °F - 37.9 °F 54% 29.83 in 10.0 mi East 6.9 mph - N/A   Clear
9:55 PM 52.3 °F - 38.3 °F 59% 29.86 in 10.0 mi NNE 4.6 mph - N/A   Clear
10:15 PM 50.5 °F - 38.3 °F 63% 29.88 in 10.0 mi NNE 6.9 mph - N/A   Clear
10:35 PM 49.8 °F - 38.5 °F 65% 29.88 in 10.0 mi NE 5.8 mph - N/A   Clear
10:55 PM 48.4 °F - 38.7 °F 69% 29.88 in 10.0 mi NE 5.8 mph - N/A   Clear
11:15 PM 49.3 °F - 38.3 °F 66% 29.88 in 10.0 mi NE 6.9 mph - N/A   Clear
11:35 PM 49.1 °F - 39.4 °F 69% 29.88 in 10.0 mi ENE 8.1 mph - N/A   Clear
11:55 PM 49.3 °F - 39.6 °F 69% 29.88 in 10.0 mi ENE 8.1 mph - N/A   Clear